Location: Ellen Observatory
(29.0040°N, 81.3000°W)
Time: 02:03:17
(UTC-04:00)

Tiangong 2 - Visible Passes

Search period start: 16 August 2018 00:00
Search period end: 26 August 2018 00:00
Orbit: 384 x 395 km, 42.8° (Epoch: 15 August)

Date Brightness Start Highest point End Pass type
(mag) Time Alt. Az. Time Alt. Az. Time Alt. Az.
16 Aug 1.4 05:20:05 57° NNW 05:20:05 57° NNW 05:23:05 10° NE visible
17 Aug 4.6 04:24:58 12° ENE 04:24:58 12° ENE 04:25:15 10° ENE visible
17 Aug 3.3 05:57:18 12° WNW 05:59:09 17° NNW 06:01:24 10° NNE visible
18 Aug 3.2 05:02:08 23° N 05:02:08 23° N 05:03:56 10° NE visible
19 Aug 3.8 05:39:25 10° NW 05:40:33 11° NNW 05:41:42 10° N visible
20 Aug 4.2 04:44:02 12° NNE 04:44:02 12° NNE 04:44:33 10° NNE visible
25 Aug 3.9 06:20:54 10° NNW 06:22:54 15° NNE 06:24:53 10° ENE visible
